Cozumel Airport, Mexico

7:12 PM EST on February 08, 2016 (GMT -0500)
Cozumel International

Weather History for MMCZ - November, 2010

Change the Weather History Date:

Wednesday, November 3, 2010

  Actual Average Record
Temperature  
Mean Temperature 74 °F -  
Max Temperature 82 °F 84 °F 89 °F (2004)
Min Temperature 66 °F 74 °F 59 °F (2012)
Cooling Degree Days 9    
Growing Degree Days 24 (Base 50)    
Moisture  
Dew Point 70 °F    
Average Humidity 89    
Maximum Humidity 100    
Minimum Humidity 66    
Precipitation  
Precipitation 0.00 in - - ()
Sea Level Pressure  
Sea Level Pressure 29.85 in    
Wind  
Wind Speed 3 mph ()    
Max Wind Speed 15 mph    
Max Gust Speed -    
Visibility 8.1 miles    
Events Rain    
Averages and records for this station are not official NWS values.
T = Trace of Precipitation, MM = Missing Value Source: Averaged Metar Reports

Daily Weather History Graph

Daily Weather History Graph

Search for Another Location

Airport or City:

Trip Planner

Search our weather history database for the weather conditions in past years. The results will help you decide how hot, cold, wet, or windy it might be!

Date:

Astronomy

Nov. 03, 2010 Rise Set
Actual Time 5:50 AM CST 5:11 PM CST
Civil Twilight 5:27 AM CST 5:34 PM CST
Nautical Twilight 5:01 AM CST 6:00 PM CST
Astronomical Twilight 4:35 AM CST 6:26 PM CST
Moon 3:06 AM CST (11/3) 3:09 PM CST (11/3)
Length of Visible Light 12h 06m
Length of Day
11h 20m
Waning Crescent, 8% of the Moon is Illuminated
Nov 3
Waning Crescent
Nov 5
New
Nov 13
First Quarter
Nov 21
Full
Nov 28
Last Quarter

Hourly Weather History & Observations

Time (CST) Temp. Heat Index Dew Point Humidity Pressure Visibility Wind Dir Wind Speed Gust Speed Precip Events Conditions
12:40 AM 69.8 °F - 69.8 °F 100% 29.98 in 7.0 mi Calm Calm - N/A   Scattered Clouds
1:41 AM 69.8 °F - 69.8 °F 100% 29.87 in 7.0 mi Calm Calm - N/A   Scattered Clouds
2:41 AM 71.6 °F - 71.6 °F 100% 29.88 in 7.0 mi ENE 3.5 mph - N/A   Scattered Clouds
3:42 AM 69.8 °F - 69.8 °F 100% 29.86 in 7.0 mi Calm Calm - N/A   Scattered Clouds
4:41 AM 68.0 °F - 68.0 °F 100% 29.95 in 7.0 mi Calm Calm - N/A   Scattered Clouds
5:46 AM 66.2 °F - 66.2 °F 100% 29.86 in 7.0 mi Calm Calm - N/A   Scattered Clouds
6:42 AM 69.8 °F - 69.8 °F 100% 29.89 in 7.0 mi Calm Calm - N/A   Scattered Clouds
7:42 AM 75.2 °F - 73.4 °F 94% 29.90 in 10.0 mi East 6.9 mph - N/A   Scattered Clouds
8:45 AM 78.8 °F - 71.6 °F 78% 29.93 in 10.0 mi East 8.1 mph - N/A   Scattered Clouds
9:47 AM 80.6 °F 84.6 °F 71.6 °F 74% 29.90 in 10.0 mi SE 4.6 mph - N/A   Scattered Clouds
10:47 AM 82.4 °F 86.3 °F 69.8 °F 66% 29.87 in 10.0 mi Calm Calm - N/A   Scattered Clouds
11:50 AM 80.6 °F 84.6 °F 71.6 °F 74% 29.82 in 10.0 mi WNW 9.2 mph - N/A   Scattered Clouds
12:41 PM 80.6 °F 84.6 °F 71.6 °F 74% 29.82 in 10.0 mi WNW 5.8 mph - N/A   Mostly Cloudy
1:41 PM 78.8 °F - 71.6 °F 78% 29.79 in 10.0 mi NW 5.8 mph - N/A   Mostly Cloudy
2:58 PM 80.6 °F 84.6 °F 71.6 °F 74% 29.81 in 10.0 mi ENE 3.5 mph - N/A   Mostly Cloudy
3:46 PM 78.8 °F - 71.6 °F 78% 29.78 in 10.0 mi SSE 3.5 mph - N/A   Mostly Cloudy
4:40 PM 77.0 °F - 71.6 °F 83% 29.78 in 8.0 mi SE 3.5 mph - N/A   Mostly Cloudy
5:47 PM 75.2 °F - 69.8 °F 83% 29.76 in 7.0 mi North 15.0 mph - N/A   Scattered Clouds
6:07 PM 73.4 °F - 68.0 °F 83% 29.82 in 6.0 mi North 8.1 mph - N/A Rain Light Rain
6:51 PM 69.8 °F - 69.8 °F 100% 29.82 in 7.0 mi Calm Calm - N/A   Scattered Clouds
7:53 PM 69.8 °F - 69.8 °F 100% 29.84 in 7.0 mi SSE 3.5 mph - N/A   Scattered Clouds
8:43 PM 69.8 °F - 69.8 °F 100% 29.87 in 7.0 mi Calm Calm - N/A   Scattered Clouds
9:42 PM 69.8 °F - 69.8 °F 100% 29.85 in 7.0 mi Calm Calm - N/A   Scattered Clouds
10:46 PM 71.6 °F - 68.0 °F 88% 29.84 in 7.0 mi NW 4.6 mph - N/A   Scattered Clouds
11:45 PM 73.4 °F - 71.6 °F 94% 29.80 in 7.0 mi WNW 15.0 mph - N/A   Scattered Clouds